EN

Hourly Weather Nyzhchyi Ol'chedaiv

Today, 16 May, Sunday

Time Temperature Precipitation Wind Pressure Humidity
00:00 +12°C° 0 mm 1 mps 738 mmHg 84%
01:00 +11°C° 0 mm 1 mps 738 mmHg 85%
02:00 +10°C° 0 mm 2 mps 738 mmHg 86%
03:00 +10°C° 0 mm 2 mps 737 mmHg 86%
04:00 +10°C° 0 mm 2 mps 737 mmHg 87%
05:00 +10°C° 0 mm 3 mps 737 mmHg 88%
06:00 +12°C° 0 mm 3 mps 737 mmHg 83%
07:00 +14°C° 0 mm 4 mps 737 mmHg 77%
08:00 +17°C° 0 mm 4 mps 738 mmHg 72%
09:00 +19°C° 0 mm 4 mps 738 mmHg 66%
10:00 +20°C° 0 mm 5 mps 737 mmHg 60%
11:00 +22°C° 0 mm 5 mps 737 mmHg 53%
12:00 +22°C° 0 mm 5 mps 737 mmHg 51%
13:00 +22°C° 0 mm 6 mps 737 mmHg 49%
14:00 +23°C° 0 mm 6 mps 737 mmHg 48%
15:00 +22°C° 0 mm 5 mps 736 mmHg 51%
16:00 +22°C° 0 mm 5 mps 736 mmHg 54%
17:00 +22°C° 0 mm 4 mps 736 mmHg 57%
18:00 +20°C° 0.1 mm 4 mps 735 mmHg 64%
19:00 +19°C° 0.1 mm 3 mps 735 mmHg 71%
20:00 +17°C° 0.1 mm 3 mps 735 mmHg 77%
21:00 +16°C° 0 mm 2 mps 735 mmHg 79%
22:00 +16°C° 0 mm 2 mps 735 mmHg 80%
23:00 +15°C° 0 mm 2 mps 735 mmHg 81%

Tomorrow, 17 May, Monday

Time Temperature Precipitation Wind Pressure Humidity
00:00 +15°C° 0.1 mm 1 mps 735 mmHg 82%
01:00 +14°C° 0.1 mm 1 mps 735 mmHg 83%
02:00 +14°C° 0.1 mm 1 mps 735 mmHg 83%
03:00 +13°C° 0 mm 1 mps 734 mmHg 85%
04:00 +13°C° 0 mm 1 mps 734 mmHg 86%
05:00 +13°C° 0 mm 2 mps 734 mmHg 88%
06:00 +14°C° 0 mm 2 mps 734 mmHg 83%
07:00 +16°C° 0 mm 2 mps 734 mmHg 79%
08:00 +17°C° 0 mm 3 mps 734 mmHg 75%
09:00 +18°C° 0.1 mm 3 mps 734 mmHg 71%
10:00 +19°C° 0.1 mm 3 mps 734 mmHg 67%
11:00 +21°C° 0.1 mm 3 mps 734 mmHg 63%
12:00 +21°C° 0.2 mm 3 mps 734 mmHg 60%
13:00 +23°C° 0.2 mm 2 mps 733 mmHg 57%
14:00 +23°C° 0.2 mm 2 mps 733 mmHg 55%
15:00 +23°C° 0.4 mm 2 mps 733 mmHg 57%
16:00 +23°C° 0.4 mm 1 mps 733 mmHg 59%
17:00 +22°C° 0.4 mm 1 mps 732 mmHg 62%
18:00 +20°C° 0.8 mm 1 mps 732 mmHg 69%
19:00 +19°C° 0.8 mm 1 mps 732 mmHg 76%
20:00 +16°C° 0.8 mm 1 mps 732 mmHg 83%
21:00 +15°C° 0.1 mm 1 mps 732 mmHg 85%
22:00 +15°C° 0.1 mm 1 mps 732 mmHg 86%
23:00 +14°C° 0.1 mm 1 mps 731 mmHg 87%

Day after tomorrow, 18 May, Tuesday

Time Temperature Precipitation Wind Pressure Humidity
00:00 +14°C° 0.2 mm 1 mps 731 mmHg 89%
01:00 +14°C° 0.2 mm 2 mps 731 mmHg 90%
02:00 +14°C° 0.2 mm 2 mps 730 mmHg 92%
03:00 +14°C° 0.7 mm 2 mps 730 mmHg 93%
04:00 +13°C° 0.7 mm 3 mps 730 mmHg 94%
05:00 +13°C° 0.7 mm 3 mps 730 mmHg 95%
06:00 +13°C° 0.5 mm 4 mps 731 mmHg 93%
07:00 +13°C° 0.5 mm 5 mps 731 mmHg 91%
08:00 +13°C° 0.5 mm 6 mps 732 mmHg 88%
09:00 +12°C° 0 mm 7 mps 732 mmHg 85%
10:00 +12°C° 0 mm 7 mps 733 mmHg 81%
11:00 +12°C° 0 mm 8 mps 734 mmHg 77%
12:00 +13°C° 0.1 mm 8 mps 734 mmHg 73%
13:00 +15°C° 0.1 mm 8 mps 734 mmHg 69%
14:00 +15°C° 0.1 mm 8 mps 734 mmHg 64%
15:00 +15°C° 0.1 mm 8 mps 735 mmHg 65%
16:00 +15°C° 0.1 mm 7 mps 735 mmHg 66%
17:00 +15°C° 0.1 mm 7 mps 735 mmHg 67%
18:00 +13°C° 0 mm 5 mps 735 mmHg 73%
19:00 +12°C° 0 mm 4 mps 735 mmHg 79%
20:00 +10°C° 0 mm 2 mps 736 mmHg 85%
21:00 +10°C° 0 mm 2 mps 736 mmHg 86%
22:00 +10°C° 0 mm 3 mps 736 mmHg 87%
23:00 +9°C° 0 mm 3 mps 736 mmHg 89%

19 May, Wednesday

Time Temperature Precipitation Wind Pressure Humidity
00:00 +9°C° 0 mm 3 mps 736 mmHg 89%
01:00 +9°C° 0 mm 3 mps 736 mmHg 90%
02:00 +8°C° 0 mm 3 mps 737 mmHg 90%
03:00 +8°C° 0 mm 3 mps 737 mmHg 90%
04:00 +8°C° 0 mm 3 mps 737 mmHg 90%
05:00 +8°C° 0 mm 3 mps 737 mmHg 90%
06:00 +10°C° 0 mm 4 mps 737 mmHg 83%
07:00 +10°C° 0 mm 5 mps 738 mmHg 76%
08:00 +13°C° 0 mm 6 mps 738 mmHg 69%
09:00 +14°C° 0 mm 6 mps 738 mmHg 64%
10:00 +15°C° 0 mm 6 mps 738 mmHg 59%
11:00 +16°C° 0 mm 6 mps 738 mmHg 54%
12:00 +17°C° 0 mm 6 mps 738 mmHg 52%
13:00 +17°C° 0 mm 6 mps 738 mmHg 50%
14:00 +19°C° 0 mm 6 mps 738 mmHg 47%
15:00 +17°C° 0 mm 6 mps 738 mmHg 50%
16:00 +17°C° 0 mm 5 mps 738 mmHg 54%
17:00 +17°C° 0 mm 5 mps 739 mmHg 57%
18:00 +15°C° 0 mm 4 mps 739 mmHg 64%
19:00 +13°C° 0 mm 3 mps 739 mmHg 70%
20:00 +12°C° 0 mm 2 mps 740 mmHg 77%
21:00 +12°C° 0 mm 2 mps 740 mmHg 79%
22:00 +10°C° 0 mm 2 mps 740 mmHg 80%
23:00 +9°C° 0 mm 2 mps 741 mmHg 82%

20 May, Thursday

Time Temperature Precipitation Wind Pressure Humidity
00:00 +9°C° 0 mm 2 mps 741 mmHg 83%
01:00 +9°C° 0 mm 2 mps 741 mmHg 84%
02:00 +9°C° 0 mm 2 mps 741 mmHg 84%
03:00 +8°C° 0 mm 2 mps 741 mmHg 86%
04:00 +8°C° 0 mm 2 mps 741 mmHg 87%
05:00 +8°C° 0 mm 2 mps 741 mmHg 88%
06:00 +9°C° 0 mm 2 mps 742 mmHg 82%
07:00 +11°C° 0 mm 3 mps 742 mmHg 77%
08:00 +13°C° 0 mm 3 mps 742 mmHg 71%
09:00 +13°C° 0 mm 3 mps 743 mmHg 67%
10:00 +14°C° 0 mm 3 mps 743 mmHg 63%
11:00 +16°C° 0 mm 3 mps 743 mmHg 58%
12:00 +16°C° 0 mm 3 mps 743 mmHg 57%
13:00 +17°C° 0 mm 3 mps 743 mmHg 55%
14:00 +17°C° 0 mm 3 mps 743 mmHg 53%
15:00 +17°C° 0 mm 3 mps 743 mmHg 54%
16:00 +17°C° 0 mm 2 mps 742 mmHg 54%
17:00 +17°C° 0 mm 2 mps 742 mmHg 54%
18:00 +16°C° 0 mm 2 mps 743 mmHg 60%
19:00 +14°C° 0 mm 2 mps 743 mmHg 67%
20:00 +13°C° 0 mm 2 mps 743 mmHg 74%
21:00 +12°C° 0 mm 2 mps 743 mmHg 77%
22:00 +10°C° 0 mm 2 mps 743 mmHg 79%
23:00 +11°C° 0 mm 1 mps 743 mmHg 82%

21 May, Friday

Time Temperature Precipitation Wind Pressure Humidity
00:00 +10°C° 0 mm 1 mps 743 mmHg 83%
01:00 +10°C° 0 mm 1 mps 743 mmHg 85%
02:00 +10°C° 0 mm 1 mps 743 mmHg 86%
03:00 +9°C° 0 mm 1 mps 743 mmHg 86%
04:00 +9°C° 0 mm 1 mps 743 mmHg 86%
05:00 +8°C° 0 mm 0 mps 743 mmHg 86%
06:00 +11°C° 0 mm 1 mps 743 mmHg 79%
07:00 +13°C° 0 mm 1 mps 743 mmHg 73%
08:00 +15°C° 0 mm 1 mps 743 mmHg 67%
09:00 +16°C° 0 mm 1 mps 743 mmHg 61%
10:00 +18°C° 0 mm 2 mps 743 mmHg 55%
11:00 +19°C° 0 mm 2 mps 743 mmHg 49%
12:00 +20°C° 0 mm 2 mps 742 mmHg 47%
13:00 +20°C° 0 mm 2 mps 742 mmHg 44%
14:00 +21°C° 0 mm 2 mps 742 mmHg 41%
15:00 +21°C° 0 mm 2 mps 742 mmHg 43%
16:00 +21°C° 0 mm 2 mps 742 mmHg 44%
17:00 +21°C° 0 mm 2 mps 741 mmHg 45%
18:00 +19°C° 0 mm 2 mps 741 mmHg 50%
19:00 +18°C° 0 mm 1 mps 741 mmHg 56%
20:00 +15°C° 0 mm 1 mps 741 mmHg 62%
21:00 +15°C° 0 mm 1 mps 741 mmHg 62%
22:00 +14°C° 0 mm 1 mps 741 mmHg 63%
23:00 +13°C° 0 mm 1 mps 741 mmHg 64%
Show more

We Need Your Consent

Meteoprog and our Service Providers may store and access personal data such as cookies, device identifiers or other similar technologies on your device and process such data to personalise content and ads, as well as provide social media features and to analyse the traffic.

  • Store and/or access information on your device

    Cookies, device identifiers or other information can be stored or accessed on your device for the purposes indicated above.

  • Personalised ads and content, ad and content measurement, audience insights, and products development

    Ads and content can be personalised based on a profile. More data can be added to better personalise ads and content. Ad and content performance can be measured. Insights about the audience who saw the ads and content can be derived. Such data can be used to develop or improve user’s experience, systems and software.

By clicking ‘I Agree’ you will allow the use of indicated cookies, device identifiers, web beacons or other similar technologies. Your settings can be changed in the browser on your device.

For certain purposes, legitimate interests may be relied on, rather than consent. You can read more about this in our Privacy and Cookie Policy.